Time,TemperatureF,DewpointF,PressureIn,WindDirection,WindDirectionDegrees,WindSpeedMPH,WindSpeedGustMPH,Humidity,HourlyPrecipIn,Conditions,Clouds,dailyrainin,SoftwareType,DateUTC
2013-03-04 00:21:00,61.0,36.0,29.85,NW,320,12.0,33.0,39,0.00,,,-99.99,,2013-03-04 08:21:00,
2013-03-04 00:31:00,61.0,36.0,29.85,NW,320,12.0,33.0,39,0.00,,,-99.99,,2013-03-04 08:31:00,
2013-03-04 00:41:00,61.0,36.0,29.85,NW,320,12.0,33.0,39,0.00,,,-99.99,,2013-03-04 08:41:00,
2013-03-04 01:21:00,61.0,36.0,29.85,NW,320,12.0,34.0,39,0.00,,,-99.99,,2013-03-04 09:21:00,
2013-03-04 01:31:00,61.0,36.0,29.85,NW,320,12.0,34.0,39,0.00,,,-99.99,,2013-03-04 09:31:00,
2013-03-04 01:42:00,61.0,36.0,29.85,NW,320,12.0,34.0,39,0.00,,,-99.99,,2013-03-04 09:42:00,
2013-03-04 02:21:00,61.0,39.0,29.86,NW,320,18.0,49.0,44,0.00,,,-99.99,,2013-03-04 10:21:00,
2013-03-04 02:31:00,61.0,39.0,29.86,NW,320,18.0,49.0,44,0.00,,,-99.99,,2013-03-04 10:31:00,
2013-03-04 02:42:00,61.0,39.0,29.86,NW,320,18.0,49.0,44,0.00,,,-99.99,,2013-03-04 10:42:00,
2013-03-04 03:21:00,59.0,41.0,29.85,NNW,330,39.0,50.0,51,0.00,,,-99.99,,2013-03-04 11:21:00,
2013-03-04 03:31:00,59.0,41.0,29.85,NNW,330,39.0,50.0,51,0.00,,,-99.99,,2013-03-04 11:31:00,
2013-03-04 03:41:00,59.0,41.0,29.85,NNW,330,39.0,50.0,51,0.00,,,-99.99,,2013-03-04 11:41:00,
2013-03-04 04:22:00,61.0,41.0,29.87,NW,320,30.0,53.0,47,0.00,,,-99.99,,2013-03-04 12:22:00,
2013-03-04 04:32:00,61.0,41.0,29.87,NW,320,30.0,53.0,47,0.00,,,-99.99,,2013-03-04 12:32:00,
2013-03-04 04:42:00,61.0,41.0,29.87,NW,320,30.0,53.0,47,0.00,,,-99.99,,2013-03-04 12:42:00,
2013-03-04 05:21:00,58.0,40.0,29.89,NW,320,14.0,29.0,52,0.00,,,-99.99,,2013-03-04 13:21:00,
2013-03-04 05:32:00,58.0,40.0,29.89,NW,320,14.0,29.0,52,0.00,,,-99.99,,2013-03-04 13:32:00,
2013-03-04 05:41:00,58.0,40.0,29.89,NW,320,14.0,29.0,52,0.00,,,-99.99,,2013-03-04 13:41:00,
2013-03-04 06:22:00,58.0,39.0,29.90,NW,320,6.0,20.0,50,0.00,,,-99.99,,2013-03-04 14:22:00,
2013-03-04 06:32:00,58.0,39.0,29.90,NW,320,6.0,20.0,50,0.00,,,-99.99,,2013-03-04 14:32:00,
2013-03-04 06:41:00,58.0,39.0,29.90,NW,320,6.0,20.0,50,0.00,,,-99.99,,2013-03-04 14:41:00,
2013-03-04 07:21:00,55.0,41.0,29.91,NW,310,12.0,24.0,59,0.00,,,-99.99,,2013-03-04 15:21:00,
2013-03-04 07:32:00,55.0,41.0,29.91,NW,310,12.0,24.0,59,0.00,,,-99.99,,2013-03-04 15:32:00,
2013-03-04 07:42:00,55.0,41.0,29.91,NW,310,12.0,24.0,59,0.00,,,-99.99,,2013-03-04 15:42:00,
2013-03-04 08:21:00,59.0,41.0,29.95,WNW,300,20.0,28.0,51,0.00,,,-99.99,,2013-03-04 16:21:00,
2013-03-04 08:31:00,59.0,41.0,29.95,WNW,300,20.0,28.0,51,0.00,,,-99.99,,2013-03-04 16:31:00,
2013-03-04 08:42:00,59.0,41.0,29.95,WNW,300,20.0,28.0,51,0.00,,,-99.99,,2013-03-04 16:42:00,
2013-03-04 09:22:00,62.0,41.0,29.95,WNW,300,26.0,33.0,46,0.00,,,-99.99,,2013-03-04 17:22:00,
2013-03-04 09:32:00,62.0,41.0,29.95,WNW,300,26.0,33.0,46,0.00,,,-99.99,,2013-03-04 17:32:00,
2013-03-04 09:42:00,62.0,41.0,29.95,WNW,300,26.0,33.0,46,0.00,,,-99.99,,2013-03-04 17:42:00,
2013-03-04 10:21:00,66.0,42.0,29.95,WNW,290,15.0,27.0,41,0.00,,,-99.99,,2013-03-04 18:21:00,
2013-03-04 10:32:00,66.0,42.0,29.95,WNW,290,15.0,27.0,41,0.00,,,-99.99,,2013-03-04 18:32:00,
2013-03-04 10:42:00,66.0,42.0,29.95,WNW,290,15.0,27.0,41,0.00,,,-99.99,,2013-03-04 18:42:00,
2013-03-04 11:21:00,69.0,40.0,29.96,WNW,290,16.0,22.0,35,0.00,,,-99.99,,2013-03-04 19:21:00,
2013-03-04 11:32:00,69.0,40.0,29.96,WNW,290,16.0,22.0,35,0.00,,,-99.99,,2013-03-04 19:32:00,
2013-03-04 11:42:00,69.0,40.0,29.96,WNW,290,16.0,22.0,35,0.00,,,-99.99,,2013-03-04 19:42:00,
2013-03-04 12:21:00,73.0,40.0,29.93,WNW,290,15.0,29.0,30,0.00,,,-99.99,,2013-03-04 20:21:00,
2013-03-04 12:32:00,73.0,40.0,29.93,WNW,290,15.0,29.0,30,0.00,,,-99.99,,2013-03-04 20:32:00,
2013-03-04 12:42:00,73.0,40.0,29.93,WNW,290,15.0,29.0,30,0.00,,,-99.99,,2013-03-04 20:42:00,
2013-03-04 13:21:00,75.0,39.0,29.91,West,280,16.0,20.0,27,0.00,,,-99.99,,2013-03-04 21:21:00,
2013-03-04 13:32:00,75.0,39.0,29.91,West,280,16.0,20.0,27,0.00,,,-99.99,,2013-03-04 21:32:00,
2013-03-04 13:42:00,75.0,39.0,29.91,West,280,16.0,20.0,27,0.00,,,-99.99,,2013-03-04 21:42:00,
2013-03-04 14:22:00,76.0,40.0,29.91,WNW,290,24.0,25.0,27,0.00,,,-99.99,,2013-03-04 22:22:00,
2013-03-04 14:32:00,76.0,40.0,29.91,WNW,290,24.0,25.0,27,0.00,,,-99.99,,2013-03-04 22:32:00,
2013-03-04 14:42:00,76.0,40.0,29.91,WNW,290,24.0,25.0,27,0.00,,,-99.99,,2013-03-04 22:42:00,
2013-03-04 15:21:00,76.0,41.0,29.91,WNW,290,24.0,29.0,29,0.00,,,-99.99,,2013-03-04 23:21:00,
2013-03-04 15:32:00,76.0,41.0,29.91,WNW,290,24.0,29.0,29,0.00,,,-99.99,,2013-03-04 23:32:00,
2013-03-04 15:42:00,76.0,41.0,29.91,WNW,290,24.0,29.0,29,0.00,,,-99.99,,2013-03-04 23:42:00,
2013-03-04 16:21:00,76.0,41.0,29.91,WNW,290,20.0,35.0,29,0.00,,,-99.99,,2013-03-05 00:21:00,
2013-03-04 16:32:00,76.0,41.0,29.91,WNW,290,20.0,35.0,29,0.00,,,-99.99,,2013-03-05 00:32:00,
2013-03-04 16:42:00,76.0,41.0,29.91,WNW,290,20.0,35.0,29,0.00,,,-99.99,,2013-03-05 00:42:00,
2013-03-04 17:21:00,74.0,41.0,29.92,WNW,290,15.0,26.0,31,0.00,,,-99.99,,2013-03-05 01:21:00,
2013-03-04 17:32:00,74.0,41.0,29.92,WNW,290,15.0,26.0,31,0.00,,,-99.99,,2013-03-05 01:32:00,
2013-03-04 17:41:00,74.0,41.0,29.92,WNW,290,15.0,26.0,31,0.00,,,-99.99,,2013-03-05 01:41:00,
2013-03-04 18:21:00,71.0,42.0,29.93,WNW,300,23.0,23.0,35,0.00,,,-99.99,,2013-03-05 02:21:00,
2013-03-04 18:32:00,71.0,42.0,29.93,WNW,300,23.0,23.0,35,0.00,,,-99.99,,2013-03-05 02:32:00,
2013-03-04 18:41:00,71.0,42.0,29.93,WNW,300,23.0,23.0,35,0.00,,,-99.99,,2013-03-05 02:41:00,
2013-03-04 19:22:00,69.0,42.0,29.96,NW,310,4.0,14.0,37,0.00,,,-99.99,,2013-03-05 03:22:00,
2013-03-04 19:32:00,69.0,42.0,29.96,NW,310,4.0,14.0,37,0.00,,,-99.99,,2013-03-05 03:32:00,
2013-03-04 19:41:00,69.0,42.0,29.96,NW,310,4.0,14.0,37,0.00,,,-99.99,,2013-03-05 03:41:00,
2013-03-04 20:21:00,67.0,41.0,29.97,North,0,0.0,3.0,38,0.00,,,-99.99,,2013-03-05 04:21:00,
2013-03-04 20:32:00,67.0,41.0,29.97,North,0,0.0,3.0,38,0.00,,,-99.99,,2013-03-05 04:32:00,
2013-03-04 20:42:00,67.0,41.0,29.97,North,0,0.0,3.0,38,0.00,,,-99.99,,2013-03-05 04:42:00,
2013-03-04 21:22:00,70.0,37.0,29.98,NNW,330,9.0,14.0,30,0.00,,,-99.99,,2013-03-05 05:22:00,
2013-03-04 21:31:00,70.0,37.0,29.98,NNW,330,9.0,14.0,30,0.00,,,-99.99,,2013-03-05 05:31:00,
2013-03-04 21:42:00,70.0,37.0,29.98,NNW,330,9.0,14.0,30,0.00,,,-99.99,,2013-03-05 05:42:00,
2013-03-04 22:22:00,66.0,37.0,29.99,NE,40,10.0,15.0,34,0.00,,,-99.99,,2013-03-05 06:22:00,
2013-03-04 22:31:00,66.0,37.0,29.99,NE,40,10.0,15.0,34,0.00,,,-99.99,,2013-03-05 06:31:00,
2013-03-04 22:41:00,66.0,37.0,29.99,NE,40,10.0,15.0,34,0.00,,,-99.99,,2013-03-05 06:41:00,
2013-03-04 23:21:00,63.0,40.0,29.99,North,0,0.0,3.0,42,0.00,,,-99.99,,2013-03-05 07:21:00,
2013-03-04 23:31:00,63.0,40.0,29.99,North,0,0.0,3.0,42,0.00,,,-99.99,,2013-03-05 07:31:00,
2013-03-04 23:41:00,63.0,40.0,29.99,North,0,0.0,3.0,42,0.00,,,-99.99,,2013-03-05 07:41:00,